SCP
0 0 0 0 0 0 0 0 0 0 0 0 0 0 0 0 0 0 0 0 0 0 0 0 0 0 0 0 0 0 0 0 0 0 0 0 0 0 0 0 0 0 0
0 0 0 0 0 0 0 0 0 0 0 0 0 0 0 0 0 0 0 0 0 0 0 0 0 0 0 0 0 0 0 0 0 0 0 0 0 0 0 0 0 0 0
0 0 0 0 0 0 0 0 0 0 0 0 0 0 0 0 0 0 0 0 0 0 0 0 0 0 0 0 0 0 0 0 0 0 0 0 0 0 0 0 0 0 0
0 0 0 0 0 0 0 0 0 0 0 0 0 0 0 0 0 0 0 0 0 0 0 0 0 0 0 0 0 0 0 0 0 0 0 0 0 0 0 0 0 0 0
0 0 0 0 0 0 0 0 0 0 0 0 0 0 0 0 0 0 0 0 0 0 0 0 0 0 0 0 0 0 0 0 0 0 0 0 0 0 0 0 0 0 0
0 0 0 0 0 0 0 0 0 0 0 0 0 0 0 0 0 0 0 0 0 0 0 0 0 0 0 0 0 0 0 0 0 0 0 0 0 0 0 0 0 0 0
0 0 0 0 0 0 0 0 0 0 0 0 0 0 0 0 0 0 0 0 0 0 0 0 0 0 0 0 0 0 0 0 0 0 0 0 0 0 0 0 0 0 0
0 0 0 0 0 0 0 0 0 0 0 0 0 0 0 0 0 0 0 0 0 0 0 0 0 0 0 0 0 0 0 0 0 0 0 0 0 0 0 0 0 0 0
0 0 0 0 0 0 0 0 0 0 0 0 0 0 0 0 0 0 0 0 0 0 0 0 0 0 0 0 0 0 0 0 0 0 0 0 0 0 0 0 0 0 0
0 0 0 0 0 0 0 0 0 0 0 0 0 0 0 0 0 0 0 0 0 0 0 0 0 0 0 0 0 0 0 0 0 0 0 0 0 0 0 0 0 0 0
0 0 0 0 0 0 0 0 0 0 0 0 0 0 0 0 0 0 0 0 0 0 0 0 0 0 0 0 0 0 0 0 0 0 0 0 0 0 0 0 0 0 0
0 0 0 0 0 0 0 0 0 0 0 0 0 0 0 0 0 0 0 0 0 0 0 0 0 0 0 0 0 0 0 0 0 0 0 0 0 0 0 0 0 0 0
0 0 0 0 0 0 0 0 0 0 0 0 0 0 0 0 0 0 0 0 0 0 0 0 0 0 0 0 0 0 0 0 0 0 0 0 0 0 0 0 0 0 0
0 0 0 0 0 0 0 0 0 0 0 0 0 0 0 0 0 0 0 0 0 0 0 0 0 0 0 0 0 0 0 0 0 0 0 0 0 0 0 0 0 0 0
0 0 0 0 0 0 0 0 0 0 0 0 0 0 0 0 0 0 0 0 0 0 0 0 0 0 0 0 0 0 0 0 0 0 0 0 0 0 0 0 0 0 0
0 0 0 0 0 0 0 0 0 0 0 0 0 0 0 0 0 0 0 0 0 0 0 0 0 0 0 0 0 0 0 0 0 0 0 0 0 0 0 0 0 0 0
0 0 0 0 0 0 0 0 0 0 0 0 0 0 0 0 0 0 0 0 0 0 0 0 0 0 0 0 0 0 0 0 0 0 0 0 0 0 0 0 0 0 0
0 0 0 0 0 0 0 0 0 0 0 0 0 0 0 0 0 0 0 0 0 0 0 0 0 0 0 0 0 0 0 0 0 0 0 0 0 0 0 0 0 0 0
0 0 0 0 0 0 0 0 0 0 0 0 0 0 0 0 0 0 0 0 0 0 0 0 0 0 0 0 0 0 0 0 0 0 0 0 0 0 0 0 0 0 0
0 0 0 0 0 0 0 0 0 0 0 0 0 0 0 0 0 0 0 0 0 0 0 0 0 0 0 0 0 0 0 0 0 0 0 0 0 0 0 0 0 0 0
0 0 0 0 0 0 0 0 0 0 0 0 0 0 0 0 0 0 0 0 0 0 0 0 0 0 0 0 0 0 0 0 0 0 0 0 0 0 0 0 0 0 0
0 0 0 0 0 0 0 0 0 0 0 0 0 0 0 0 0 0 0 0 0 0 0 0 0 0 0 0 0 0 0 0 0 0 0 0 0 0 0 0 0 0 0
0 0 0 0 0 0 0 0 0 0 0 0 0 0 0 0 0 0 0 0 0 0 0 0 0 0 0 0 0 0 0 0 0 0 0 0 0 0 0 0 0 0 0
0 0 0 0 0 0 0 0 0 0 0 0 0 0 0 0 0 0 0 0 0 0 0 0 0 0 0 0 0 0 0 0 0 0 0 0 0 0 0 0 0 0 0
0 0 0 0 0 0 0 0 0 0 0 0 0 0 0 0 0 0 0 0 0 0 0 0 0 0 0 0 0 0 0 0 0 0 0 0 0 0 0 0 0 0 0
0 0 0 0 0 0 0 0 0 0 0 0 0 0 0 0 0 0 0 0 0 0 0 0 0 0 0 0 0 0 0 0 0 0 0 0 0 0 0 0 0 0 0
Wind_Speed
2 3 3 2 2 3 3 4 5 5 5 5 6 6 6 6 6 6 6 7 6 6 6 6 7 7 7 7 6 6 6 6 6 7 7 7 6 6 6 6 6 4 7
1 2 2 2 3 4 4 5 5 5 5 5 6 6 6 6 6 6 6 6 6 6 6 7 7 7 7 7 6 6 6 6 6 7 6 6 5 6 6 6 6 4 6
0 1 1 3 4 4 5 5 5 5 6 6 6 6 6 6 6 6 6 6 6 7 7 7 8 8 8 8 7 6 5 6 7 7 6 3 3 5 6 6 6 6 6
1 1 2 3 4 4 5 5 5 6 6 7 7 6 6 6 6 6 6 6 6 6 7 7 7 8 8 8 8 8 8 8 7 7 4 3 2 5 5 5 6 6 6
1 2 2 4 4 4 4 5 5 6 6 7 7 7 7 7 7 6 6 6 6 7 7 7 8 8 8 8 9 9 9 9 9 7 4 3 2 4 4 5 5 5 5
1 2 2 3 4 4 4 5 5 6 7 7 6 7 7 7 6 6 6 6 7 7 8 8 8 8 9 9 9 9 9 10 8 5 4 3 2 4 5 5 5 5 5
1 1 2 3 4 4 5 5 6 6 7 7 7 7 7 7 7 7 7 7 7 7 8 8 8 8 9 8 8 8 8 9 6 4 3 2 2 4 5 5 5 4 4
2 2 2 3 4 4 5 6 7 7 7 8 8 8 8 8 7 7 7 7 7 8 8 9 9 9 8 8 8 8 8 7 6 4 3 2 3 4 5 4 5 5 4
2 2 2 3 3 4 5 5 6 7 7 8 8 9 9 8 8 8 8 8 7 8 8 8 9 9 8 9 9 8 8 9 5 3 3 2 4 4 5 5 5 6 5
2 2 2 2 3 3 3 4 5 6 7 8 8 9 8 8 9 9 8 8 8 9 9 9 9 9 9 10 10 9 9 7 4 3 2 2 4 5 6 6 6 6 6
1 1 1 2 2 2 3 4 5 6 7 7 6 8 7 5 5 5 7 9 9 9 10 10 10 10 10 10 11 10 8 3 4 3 2 4 5 5 6 7 7 6 5
1 1 0 0 1 2 2 3 3 3 4 4 3 4 3 4 4 6 8 10 10 10 10 11 12 11 8 5 7 8 4 4 3 2 3 7 7 7 7 7 6 6 5
2 1 1 1 1 1 1 2 2 2 2 3 3 3 3 3 3 4 3 5 6 7 5 7 7 5 5 4 4 4 4 4 3 3 3 6 6 7 7 7 7 6 5
2 2 1 1 1 1 1 1 1 1 1 2 2 2 2 2 3 3 3 3 3 3 4 4 4 5 5 5 5 5 5 3 3 3 3 7 6 6 7 6 6 6 6
3 2 2 2 2 1 1 1 2 1 1 1 1 2 2 2 2 2 2 3 3 3 3 3 4 5 5 5 5 5 4 4 4 4 3 7 7 7 7 6 6 6 6
4 3 2 2 2 2 1 1 1 1 1 1 1 2 2 2 2 2 2 2 2 3 3 3 3 4 3 4 4 4 4 4 4 4 4 5 8 8 7 7 6 6 6
4 3 3 3 2 3 2 1 1 1 2 1 1 1 2 2 3 2 2 2 2 2 3 3 3 3 3 4 4 4 3 4 4 4 4 4 4 7 8 7 7 6 6
4 3 3 3 3 3 2 2 1 2 2 1 1 1 2 2 3 2 2 2 2 2 2 2 2 3 3 3 3 3 3 3 4 4 4 4 3 3 5 7 6 6 5
5 4 3 3 3 3 2 2 2 2 2 1 1 1 2 2 3 3 2 2 2 2 2 2 3 2 2 2 2 3 3 3 3 3 4 4 4 4 3 5 6 6 5
4 4 3 3 3 3 2 2 2 3 2 1 1 1 1 2 3 3 2 2 2 2 2 2 3 2 2 2 3 3 3 2 2 3 3 3 3 4 4 4 3 4 5
4 4 3 3 3 3 2 2 2 1 1 1 1 1 2 2 2 3 2 2 2 2 2 2 2 2 2 1 2 2 3 3 2 2 2 3 4 4 4 3 2 2 3
4 4 4 4 3 3 2 2 2 2 1 0 1 1 2 2 2 2 3 2 2 2 2 2 2 2 1 1 2 2 2 3 3 3 2 2 3 3 4 3 3 2 2
4 5 5 4 4 3 3 3 3 2 2 2 1 1 1 1 2 2 3 2 2 2 2 2 2 2 1 0 1 2 2 1 2 2 2 2 3 3 3 3 2 2 2
5 4 4 4 3 3 4 3 4 2 1 1 1 0 1 1 1 2 2 2 2 1 2 2 2 2 2 1 0 0 1 2 2 1 2 2 3 3 3 3 3 3 3
4 4 4 3 3 3 4 4 4 2 1 1 1 1 1 1 1 1 1 1 1 1 2 2 1 2 2 2 2 1 1 1 1 2 1 2 3 2 2 3 2 2 2
3 3 3 4 3 3 3 3 4 4 2 2 1 1 0 1 1 0 1 1 1 1 2 2 2 2 2 2 2 2 2 2 2 2 2 1 2 2 2 2 2 2 2
Wind_Direction
283 283 303 22 52 60 56 51 61 60 62 74 76 74 71 75 87 92 92 91 90 89 89 90 92 94 95 97 101 107 110 116 118 125 128 126 123 122 123 119 113 105 111
259 303 338 40 57 66 66 65 67 65 66 72 76 77 73 72 79 85 89 91 91 90 85 85 88 91 90 88 91 99 104 116 117 116 116 114 118 121 121 122 122 117 115
28 350 13 52 63 68 71 70 69 70 71 71 74 78 75 71 73 78 84 88 89 88 86 86 87 89 87 82 80 81 95 105 107 102 93 77 94 115 122 120 121 121 121
94 29 35 61 65 70 71 70 70 74 72 71 72 73 73 70 69 73 79 82 83 88 89 90 94 91 87 83 78 73 92 99 94 89 76 65 79 108 106 113 113 117 117
65 24 24 59 62 66 71 72 72 74 74 74 71 67 66 65 65 68 76 81 84 89 90 92 93 86 83 78 76 74 80 86 82 74 64 58 59 99 99 104 109 112 112
64 24 22 55 65 66 76 83 81 77 75 74 70 66 61 61 61 59 69 81 84 87 87 87 88 81 78 75 74 75 76 77 72 64 60 56 57 97 99 100 105 109 112
86 33 29 60 67 68 78 85 81 79 75 74 70 67 62 58 52 52 64 75 74 79 81 82 81 78 76 72 72 77 81 78 71 61 51 45 63 89 90 92 98 108 104
101 61 35 51 69 73 80 85 80 76 72 69 67 65 61 56 51 62 74 82 79 78 77 76 78 76 75 75 77 79 80 74 69 60 49 40 72 78 86 88 88 95 98
64 61 33 25 36 54 69 82 83 77 72 69 65 63 57 54 63 74 79 83 81 79 76 76 78 76 74 75 74 73 73 67 60 47 50 47 67 72 88 89 85 86 86
47 45 33 25 31 34 36 60 76 76 71 66 62 58 54 48 56 63 70 76 74 71 72 72 70 71 71 71 68 67 66 59 53 43 30 53 67 71 82 86 85 83 83
49 25 21 18 24 35 37 46 53 57 58 57 55 53 49 32 34 45 58 65 65 66 68 69 66 67 67 64 63 59 56 47 45 36 23 53 60 70 79 78 78 78 80
224 260 284 354 14 37 49 53 44 45 42 43 43 38 38 33 31 42 47 59 62 65 65 63 61 60 59 51 51 51 45 42 40 31 37 51 59 67 72 75 74 72 73
211 226 211 197 59 66 61 63 54 46 40 40 44 44 43 38 33 39 40 42 47 54 53 52 50 47 50 50 49 45 41 41 30 23 30 52 60 66 68 70 70 70 69
185 219 217 159 111 88 84 74 77 65 52 42 37 50 61 51 41 40 42 42 47 49 56 53 55 54 53 52 52 50 42 39 30 19 27 45 55 66 70 70 70 70 72
192 213 205 174 163 144 109 92 89 80 74 56 48 57 81 79 61 52 46 50 53 56 62 60 59 59 54 51 52 53 43 38 35 29 18 38 47 56 66 68 69 67 65
194 204 196 180 172 147 134 125 106 95 85 68 57 68 88 95 88 73 63 55 58 66 68 68 66 65 59 55 49 43 40 37 33 29 22 22 30 36 44 49 60 65 61
192 190 183 176 148 143 143 139 114 102 92 80 66 79 94 102 100 92 80 67 64 75 75 72 65 62 65 60 49 39 36 35 34 28 24 19 15 27 35 41 49 56 57
175 173 178 164 142 143 141 129 109 101 97 81 71 79 89 102 107 99 91 80 74 76 79 82 71 66 58 56 49 35 31 30 32 29 30 22 16 13 19 32 37 40 44
173 164 161 148 140 140 125 101 92 85 83 80 75 76 87 101 111 109 99 90 89 81 73 83 70 81 75 60 55 44 31 29 21 27 29 21 17 14 11 15 21 26 32
160 152 155 144 128 117 96 80 70 62 53 54 63 73 97 102 112 111 104 98 94 90 76 80 83 71 80 70 62 45 25 22 24 24 18 15 14 15 13 12 8 4 14
144 149 159 151 141 126 115 113 106 95 49 46 57 78 97 102 110 111 113 109 106 110 117 117 109 91 69 67 65 29 12 22 28 20 14 15 10 5 10 13 10 2 351
164 165 164 165 156 153 146 135 126 121 106 88 32 51 74 96 106 115 117 120 116 113 108 120 130 119 100 78 101 81 15 354 359 15 14 20 7 3 9 10 8 6 356
176 180 177 178 165 153 130 102 83 64 50 39 29 20 13 75 103 107 124 130 133 135 148 158 154 143 155 65 106 130 133 222 316 335 4 14 6 6 359 351 2 359 0
191 179 175 170 158 146 140 135 134 141 160 204 195 221 12 43 90 114 134 145 146 150 164 180 163 159 150 172 176 81 151 161 148 325 334 351 0 9 359 357 357 358 2
175 166 164 150 145 146 149 148 144 147 169 145 109 93 38 13 27 98 145 146 152 163 178 182 157 167 166 171 172 155 108 95 123 148 278 326 346 347 353 347 348 353 359
160 153 149 146 154 153 154 154 159 164 161 147 152 156 291 326 326 325 171 160 165 178 191 197 187 185 185 175 169 167 165 161 170 158 179 260 313 314 336 344 352 348 350